This is the latest recevied weather packets stored in our database for station/object W4DHW-4. If no packets are shown the sender has not sent any weather packets the latest 10 day(s).
| Time | Temp. | Humidity | Pressure | Rain* | Wind** | Luminosity | Snow |
|---|---|---|---|---|---|---|---|
| 1777639361 | 9.44° C | 76% | 1016.8 hPa | 0 mm | - | 330 W/m² | - |
| 1777639055 | 8.89° C | 77% | 1016.6 hPa | 0 mm | - | 322 W/m² | - |
| 1777638753 | 8.89° C | 78% | 1016.5 hPa | 0 mm | - | 294 W/m² | - |
| 1777638448 | 8.89° C | 80% | 1016.6 hPa | 0 mm | - | 309 W/m² | - |
| 1777638146 | 8.33° C | 80% | 1016.7 hPa | 0 mm | - | 220 W/m² | - |
| 1777637841 | 8.89° C | 80% | 1016.5 hPa | 0 mm | - | 203 W/m² | - |
| 1777637538 | 8.89° C | 79% | 1016.6 hPa | 0 mm | - | 183 W/m² | - |
| 1777637235 | 8.89° C | 81% | 1016.5 hPa | 0 mm | - | 235 W/m² | - |
| 1777636932 | 7.78° C | 85% | 1016.8 hPa | 0 mm | - | 236 W/m² | - |
| 1777636628 | 6.67° C | 86% | 1016.7 hPa | 0 mm | - | 121 W/m² | - |
| 1777636325 | 6.67° C | 88% | 1016.5 hPa | 0 mm | - | 108 W/m² | - |
| 1777636024 | 6.11° C | 90% | 1016.7 hPa | 0 mm | - | 90 W/m² | - |
| 1777635720 | 6.11° C | 90% | 1016.4 hPa | 0 mm | - | 88 W/m² | - |
| 1777635417 | 6.11° C | 91% | 1016.5 hPa | 0 mm | - | 83 W/m² | - |
| 1777635114 | 6.11° C | 91% | 1016.7 hPa | 0 mm | - | 96 W/m² | - |
| 1777634810 | 5.56° C | 92% | 1016.5 hPa | 0 mm | - | 72 W/m² | - |
| 1777634508 | 5.56° C | 92% | 1016.2 hPa | 0 mm | - | 64 W/m² | - |
| 1777634204 | 5.56° C | 92% | 1016.3 hPa | 0 mm | - | 49 W/m² | - |
| 1777633901 | 5.56° C | 92% | 1016.6 hPa | 0 mm | - | 45 W/m² | - |
| 1777633598 | 5° C | 92% | 1016.2 hPa | 0 mm | - | 38 W/m² | - |
| 1777633296 | 5.56° C | 92% | 1016.3 hPa | 0 mm | - | 32 W/m² | - |
| 1777632994 | 5.56° C | 91% | 1016.1 hPa | 0 mm | - | 27 W/m² | - |
| 1777632689 | 5.56° C | 91% | 1016.4 hPa | 0 mm | - | 21 W/m² | - |
| 1777632386 | 5° C | 91% | 1016.4 hPa | 0 mm | - | 14 W/m² | - |
| 1777632083 | 5° C | 90% | 1016.2 hPa | 0 mm | - | 10 W/m² | - |
* Rain latest hour (hover to see other rain measurements)
** Current wind speed in m/s (hover to see current wind gust speed)